Preview of NWS' New Version of Forecast
This preview is not operational and should not be used for support decisions.

Regional Weather Roundup (RWR)

Issued by Gray - Portland, ME (GYX)

                            
000
ASUS41 KGYX 201810
RWRGYX
WEATHER ROUNDUP FOR MAINE AND NEW HAMPSHIRE
NATIONAL WEATHER SERVICE GRAY ME
100 PM EST SUN JAN 20 2019

MEZ002-005-006-010-012-015-018-020-021-024-026-027-029-201900-
MAINE
  
CITY           SKY/WX    TMP DP  RH WIND       PRES   REMARKS
PORTLAND       LGTSLEET  10   6  84 N16G25    29.42F VSB 1/2 WCI  -7  
6HR MIN TEMP:   7; 6HR MAX TEMP:  10; 6HR PCP:  0.39;                

SANFORD        LGT SNOW  10   7  87 N17       29.35F VSB 1   WCI  -8  
BAR HARBOR     LGT SNOW  15  12  88 N12       29.42F VSB 1   WCI   2  
WISCASSET      LGT SNOW   9   6  88 VRB7      29.43F VSB 3/4          
6HR MIN TEMP:   5; 6HR MAX TEMP:   9; 6HR PCP:  0.42;                

ROCKLAND       LGT SNOW  19  16  86 NE23G33   29.35F VSB 3/4 WCI   2  
FRYEBURG       MIX PCPN  12   8  84 NE9       29.39F FOG              
6HR MIN TEMP:   8; 6HR MAX TEMP:  12; 6HR PCP:  0.41;                

LEWISTONAUBURN SNOW       6   2  83 N18       29.44F VSB 1/2 WCI -13  
AUGUSTA        SNOW       4   0  83 N20G30    29.47F VSB 1/4 WCI -17  
6HR MIN TEMP:   0; 6HR MAX TEMP:   5; 6HR PCP: TRACE;                

WATERVILLE     LGT SNOW N/A N/A N/A MISG        N/A  VSB 3/4          
BANGOR         LGTSLEET   7   3  84 N20       29.51F VSB 3/4 WCI -13  
6HR MIN TEMP:   1; 6HR MAX TEMP:   9;                                

GREENVILLE       N/A     -3 -10  72 MISG      29.45F                  
6HR MIN TEMP:  -3; 6HR MAX TEMP:   3; 6HR PCP:  0.91;                

MILLINOCKET    HVY SNOW   0  -6  76 N8        29.64F VSB 1/4          
6HR MIN TEMP:  -3; 6HR MAX TEMP:   0; 6HR PCP: TRACE;                

HOULTON        SNOW       7   3  84 NE15      29.66F VSB<1/4 WCI -10  
6HR MIN TEMP:  -3; 6HR MAX TEMP:   7; 6HR PCP:  0.24;                

PRESQUE ISLE   HVY SNOW   0  -5  79 N16       29.73F VSB 1/4 WCI -20  
6HR MIN TEMP:  -7; 6HR MAX TEMP:   0; 6HR PCP: TRACE;                

FRENCHVILLE    HVY SNOW   0  -7  72 N12       29.79F VSB 1/4 WCI -17  
6HR MIN TEMP:  -9; 6HR MAX TEMP:   0; 6HR PCP:  0.14;                

CARIBOU        HVY SNOW   0  -6  76 N16       29.76F VSB<1/4 WCI -20  
6HR MIN TEMP:  -7; 6HR MAX TEMP:   0; 6HR PCP:  0.45;                

$$

NHZ002-005-008-009-011-012-014-201900-
NEW HAMPSHIRE
  
CITY           SKY/WX    TMP DP  RH WIND       PRES   REMARKS
PORTSMOUTH     LGTSLEET  13   8  82 N13       29.31F VSB 3/4 WCI  -2  
ROCHESTER      LGT SNOW  12   9  87 N13G21    29.32F VSB 1   WCI  -3  
6HR MIN TEMP:  10; 6HR MAX TEMP:  12; 6HR PCP:  0.19;                

NASHUA         LGT SNOW  16  15  96 NW8       29.31F VSB 3/4          
MANCHESTER     LGTSLEET  17  13  84 N9        29.30F VSB 1            
6HR MIN TEMP:  14; 6HR MAX TEMP:  17; 6HR PCP:  0.26;                

CONCORD        MIX PCPN  15  12  88 N6        29.30F FOG              
6HR MIN TEMP:  12; 6HR MAX TEMP:  15; 6HR PCP:  0.31;                

LACONIA        LGT SNOW  13  10  88 E22       29.31F VSB 3/4 WCI  -6  
PLYMOUTH       LGT SNOW  19  16  86 CALM      29.34F VSB 3/4          
BERLIN         SNOW      11   6  81 NW6       29.37F VSB 1/2          
6HR MIN TEMP:   5; 6HR MAX TEMP:  11; 6HR PCP:  0.45;                

WHITEFIELD     LGT SNOW  18  12  77 E16G24    29.32F VSB 1   WCI   3  
6HR MIN TEMP:  13; 6HR MAX TEMP:  21; 6HR PCP:  0.09;                

JAFFREY        LGT SNOW  14  11  87 VRB3      29.29S VSB 1            
6HR MIN TEMP:  12; 6HR MAX TEMP:  13; 6HR PCP:  0.17;                

KEENE          SNOW      17  15  92 N8        29.36R VSB 1/4          
LEBANON        LGT SNOW  16  10  77 N6        29.40F VSB 3/4          
6HR MIN TEMP:  15; 6HR MAX TEMP:  17; 6HR PCP:  0.19;                

MT WASHINGTON  NOT AVBL                                               
$$

VTZ005-007-008-201900-
VERMONT
  
CITY           SKY/WX    TMP DP  RH WIND       PRES   REMARKS
ST JOHNSBURY     N/A     14  11  87 MISG      29.38S                  
MONTPELIER     SNOW      10   8  92 NW6       29.44S VSB 1/4          
BURLINGTON     SNOW       1  -4  79 NW20G25   29.56S VSB 1/2 WCI -20  
$$

MAZ007-012-024-CTZ003-RIZ002-NYZ038-NYZ072-201900-
SOUTHERN NEW ENGLAND AND NY
  
CITY           SKY/WX    TMP DP  RH WIND       PRES   REMARKS
BOSTON         FRZ RAIN  28  25  88 E9        29.27F FOG              
WORCESTER      MIX PCPN  15  14  95 NE12      29.22F FOG     WCI   2  
NANTUCKET      TSTM      50  49  96 S18       29.31  VSB 3/4          
PROVIDENCE     LGT RAIN  34  33  96 N3        29.23F FOG              
HARTFORD       LGTSLEET  22  20  92 N14       29.31S VSB 1   WCI   9  
ALBANY         SNOW      21  16  81 N9        29.48F VSB 1/2          
NEW YORK CITY  PTSUNNY   37  32  82 N14G25    29.27R                  
$$

ANZ081-ANZ082-ANZ150-NHZ014-MEZ023>029-201900-
COASTAL MARINE OBSERVATIONS
  
STATION/POSITION TIME  TEMP    WIND        PRES    WAVE
                       AIR SEA DIR/SP/G            HT/PER
                 (UTC) (F)     (DEG/KT/KT) (MB)    (FT/S)
MOUNT DESERT ROC 1800   37      40/ 25/ 28  993.1F
MATINICUS ROCK   1800   38      40/ 25/ 27  992.0F
ISLE OF SHOALS   1800   20      20/ 25/ 30  992.2F
JEFFREYS LEDGE   1738      42                N/A    13/ 9
CASHES LEDGE BUO 1750   45 40               991.5F  12/ 9
$$

.............KEY..............
   WCI - WIND CHILL
   TC  - TEMPERATURE IN CELSIUS
   VSB - VISIBILITY IN MILES
   HX  - HEAT INDEX
   FAIR- INDICATES FEW OR NO CLOUDS BELOW 12,000 FT, WITH NO 
         SIGNIFICANT WEATHER AND/OR OBSTRUCTIONS TO VISIBILITY.